TimeCDT,TemperatureF,Dew PointF,Humidity,Sea Level PressureIn,VisibilityMPH,Wind Direction,Wind SpeedMPH,Gust SpeedMPH,PrecipitationIn,Events,Conditions,WindDirDegrees,DateUTC
12:15 AM,66.2,64.2,93,29.92,10.0,Calm,Calm,-,N/A,,Clear,0,2013-08-02 05:15:00
12:35 AM,66.2,64.4,94,29.92,10.0,Calm,Calm,-,N/A,,Clear,0,2013-08-02 05:35:00
12:55 AM,65.5,63.9,94,29.94,10.0,Calm,Calm,-,N/A,,Clear,0,2013-08-02 05:55:00
1:15 AM,65.3,63.9,95,29.94,10.0,Calm,Calm,-,N/A,,Clear,0,2013-08-02 06:15:00
1:55 AM,65.7,64.6,96,29.94,10.0,Calm,Calm,-,N/A,,Clear,0,2013-08-02 06:55:00
2:15 AM,65.8,64.8,96,29.93,10.0,Calm,Calm,-,N/A,,Clear,0,2013-08-02 07:15:00
2:35 AM,65.8,64.8,96,29.94,10.0,Calm,Calm,-,N/A,,Clear,0,2013-08-02 07:35:00
2:55 AM,66.4,64.9,95,29.94,10.0,Calm,Calm,-,N/A,,Scattered Clouds,0,2013-08-02 07:55:00
3:15 AM,66.0,64.8,96,29.93,10.0,Calm,Calm,-,N/A,,Scattered Clouds,0,2013-08-02 08:15:00
3:35 AM,65.3,64.0,96,29.94,10.0,Calm,Calm,-,N/A,,Mostly Cloudy,0,2013-08-02 08:35:00
3:55 AM,65.5,64.4,96,29.94,10.0,Calm,Calm,-,N/A,,Overcast,0,2013-08-02 08:55:00
4:15 AM,65.8,64.8,96,29.93,10.0,Calm,Calm,-,N/A,,Mostly Cloudy,0,2013-08-02 09:15:00
4:35 AM,65.5,64.6,97,29.92,7.0,Calm,Calm,-,N/A,,Clear,0,2013-08-02 09:35:00
4:55 AM,64.6,63.7,97,29.92,5.0,Calm,Calm,-,N/A,,Mostly Cloudy,0,2013-08-02 09:55:00
5:15 AM,65.5,64.6,97,29.93,10.0,Calm,Calm,-,N/A,,Overcast,0,2013-08-02 10:15:00
5:35 AM,66.2,64.9,96,29.94,10.0,Calm,Calm,-,N/A,,Overcast,0,2013-08-02 10:35:00
5:55 AM,66.7,65.3,95,29.94,10.0,Calm,Calm,-,N/A,,Overcast,0,2013-08-02 10:55:00
6:15 AM,67.1,65.5,95,29.92,10.0,Calm,Calm,-,N/A,,Overcast,0,2013-08-02 11:15:00
6:35 AM,67.5,65.7,94,29.92,10.0,Calm,Calm,-,N/A,,Overcast,0,2013-08-02 11:35:00
6:55 AM,68.0,65.8,93,29.91,10.0,Calm,Calm,-,N/A,,Overcast,0,2013-08-02 11:55:00
7:35 AM,68.0,65.7,92,29.91,7.0,Calm,Calm,-,N/A,,Clear,0,2013-08-02 12:35:00
7:55 AM,69.8,66.4,89,29.91,10.0,NNE,3.5,-,N/A,,Clear,30,2013-08-02 12:55:00
8:15 AM,71.1,66.2,85,29.92,10.0,Calm,Calm,-,N/A,,Clear,0,2013-08-02 13:15:00
8:35 AM,72.5,66.7,82,29.92,10.0,East,3.5,-,N/A,,Mostly Cloudy,80,2013-08-02 13:35:00
8:55 AM,74.7,64.8,71,29.91,10.0,East,8.1,-,N/A,,Scattered Clouds,90,2013-08-02 13:55:00
9:15 AM,75.2,61.0,61,29.92,10.0,East,6.9,-,N/A,,Scattered Clouds,90,2013-08-02 14:15:00
9:35 AM,74.5,59.2,59,29.93,10.0,SE,3.5,-,N/A,,Mostly Cloudy,130,2013-08-02 14:35:00
9:55 AM,74.3,59.7,60,29.94,10.0,SSE,3.5,-,N/A,,Mostly Cloudy,160,2013-08-02 14:55:00
10:15 AM,73.9,60.6,63,29.96,10.0,SSW,3.5,-,N/A,,Mostly Cloudy,200,2013-08-02 15:15:00
10:35 AM,73.0,61.9,68,29.96,10.0,SSW,3.5,-,N/A,Rain,Light Rain,200,2013-08-02 15:35:00
10:55 AM,72.5,64.6,76,29.98,10.0,NW,3.5,-,N/A,Rain-Thunderstorm,Light Thunderstorms and Rain,310,2013-08-02 15:55:00
11:15 AM,69.4,65.1,86,29.99,7.0,NE,3.5,-,0.01,Rain-Thunderstorm,Thunderstorms and Rain,40,2013-08-02 16:15:00
11:35 AM,69.3,65.3,87,29.99,7.0,ENE,3.5,-,0.03,Rain,Light Rain,60,2013-08-02 16:35:00
11:55 AM,68.0,65.1,90,29.99,3.0,NE,6.9,-,0.08,Rain,Heavy Rain,40,2013-08-02 16:55:00
12:15 PM,67.1,64.9,93,29.98,3.0,ENE,8.1,-,0.06,Rain,Rain,60,2013-08-02 17:15:00
12:35 PM,67.5,65.8,95,29.99,7.0,NNE,6.9,-,0.09,Rain,Light Rain,20,2013-08-02 17:35:00
12:55 PM,68.4,64.8,88,30.01,10.0,NNE,3.5,-,0.09,,Light Drizzle,30,2013-08-02 17:55:00
1:15 PM,68.5,64.6,87,30.01,10.0,NNE,5.8,-,N/A,Rain,Light Rain,30,2013-08-02 18:15:00
1:35 PM,68.4,64.2,87,30.01,10.0,NNE,4.6,-,N/A,Rain,Rain,30,2013-08-02 18:35:00
1:55 PM,68.0,65.1,90,30.04,10.0,NNW,3.5,-,N/A,Rain,Light Rain,330,2013-08-02 18:55:00
2:15 PM,67.5,63.9,88,30.00,3.0,ENE,5.8,-,0.04,Rain,Heavy Rain,60,2013-08-02 19:15:00
2:35 PM,67.3,62.4,84,29.99,10.0,East,5.8,-,0.06,Rain,Light Rain,100,2013-08-02 19:35:00
2:55 PM,67.8,63.3,85,29.99,10.0,SE,6.9,-,0.06,Rain,Light Rain,140,2013-08-02 19:55:00
3:15 PM,69.8,62.8,78,30.00,10.0,East,3.5,-,N/A,,Overcast,90,2013-08-02 20:15:00
3:35 PM,70.2,63.7,80,30.02,10.0,North,6.9,-,N/A,,Scattered Clouds,10,2013-08-02 20:35:00
3:55 PM,68.9,63.9,84,30.03,10.0,North,4.6,-,N/A,Rain,Rain,360,2013-08-02 20:55:00
4:15 PM,68.0,65.3,91,30.02,5.0,NNE,4.6,-,0.02,Rain,Light Rain,30,2013-08-02 21:15:00
4:35 PM,67.6,64.9,91,30.02,10.0,NE,3.5,-,0.02,,Overcast,50,2013-08-02 21:35:00
4:55 PM,68.5,65.5,90,29.97,10.0,ESE,6.9,-,0.02,Rain,Light Rain,110,2013-08-02 21:55:00
5:15 PM,70.0,64.8,83,29.97,10.0,East,5.8,-,N/A,,Clear,100,2013-08-02 22:15:00
5:35 PM,71.4,64.2,78,29.97,10.0,East,8.1,-,N/A,,Clear,80,2013-08-02 22:35:00
5:55 PM,72.5,62.4,71,29.98,10.0,ENE,8.1,-,N/A,,Clear,60,2013-08-02 22:55:00
6:15 PM,72.5,62.1,70,29.99,10.0,NE,8.1,-,N/A,,Mostly Cloudy,50,2013-08-02 23:15:00
6:35 PM,70.9,61.9,73,29.99,10.0,NE,8.1,-,N/A,,Scattered Clouds,40,2013-08-02 23:35:00
6:55 PM,70.2,60.4,71,30.01,10.0,NE,8.1,-,N/A,,Mostly Cloudy,40,2013-08-02 23:55:00
7:15 PM,70.0,61.3,74,30.01,10.0,NNE,3.5,-,N/A,,Overcast,30,2013-08-03 00:15:00
7:35 PM,69.8,62.4,77,30.02,10.0,NE,3.5,-,N/A,,Overcast,40,2013-08-03 00:35:00
7:55 PM,69.8,63.5,80,30.02,10.0,NNE,4.6,-,N/A,,Overcast,20,2013-08-03 00:55:00
8:15 PM,69.3,63.0,80,30.02,10.0,Calm,Calm,-,N/A,,Scattered Clouds,0,2013-08-03 01:15:00
8:35 PM,67.6,62.6,84,30.02,10.0,Calm,Calm,-,N/A,,Clear,0,2013-08-03 01:35:00
8:55 PM,66.2,63.0,89,30.03,10.0,NNE,3.5,-,N/A,,Clear,30,2013-08-03 01:55:00
9:15 PM,65.8,63.5,92,30.04,10.0,Calm,Calm,-,N/A,,Clear,0,2013-08-03 02:15:00
9:35 PM,65.3,63.0,92,30.05,10.0,Calm,Calm,-,N/A,,Scattered Clouds,0,2013-08-03 02:35:00
9:55 PM,65.3,63.5,94,30.06,10.0,NE,3.5,-,N/A,,Mostly Cloudy,40,2013-08-03 02:55:00
10:15 PM,65.3,63.5,94,30.07,10.0,Calm,Calm,-,N/A,,Overcast,0,2013-08-03 03:15:00
10:35 PM,65.5,63.3,93,30.07,10.0,NE,3.5,-,N/A,,Overcast,40,2013-08-03 03:35:00
10:55 PM,65.5,63.1,92,30.07,10.0,NNE,3.5,-,N/A,,Overcast,30,2013-08-03 03:55:00
11:15 PM,65.5,63.3,93,30.08,10.0,Calm,Calm,-,N/A,,Overcast,0,2013-08-03 04:15:00
11:35 PM,65.7,63.5,93,30.07,10.0,NNE,3.5,-,N/A,,Overcast,30,2013-08-03 04:35:00
11:55 PM,65.7,63.5,93,30.07,10.0,NNE,3.5,-,N/A,,Overcast,30,2013-08-03 04:55:00